Regional Weather Roundup
Issued by NWS Grand Forks, ND

Home | Current Version | Previous Version | Text Only | Print | Product List | Glossary Off
Versions: 1 2 3 4 5 6 7 8 9 10 11 12 13 14 15 16 17 18 19 20 21 22 23 24 25 26 27 28 29 30 31 32 33 34 35 36 37 38 39 40 41 42 43 44 45 46 47 48 49 50

000
ASUS43 KFGF 050531
RWRFGF
PRAIRIE TO PINES  WEATHER ROUNDUP
NATIONAL WEATHER SERVICE EASTERN NORTH DAKOTA/GRAND FORKS ND
1200 AM CDT SUN JUL 05 2015

 **SATELLITE DATA USED TO AUGMENT SKY COVER AT AUTOMATED STATIONS**
 *****  WEATHER ACROSS EASTERN NORTH DAKOTA  *****

CITY           SKY/WX    TMP DP  RH WIND       PRES   REMARKS
GRAND FORKS    CLOUDY    75  67  76 S10       29.71R
GRAND FRKS AFB CLOUDY    76  68  75 S9        29.71S
GRAND FRKS NWS   N/A     73 N/A N/A S7          N/A
DEVILS LAKE    CLOUDY    70  61  73 E6        29.77R
FARGO          MOCLDY    75  65  70 S14       29.75F
WAHPETON ARPT  MOCLDY    70  63  78 S13       29.77F
$$

 ***** WEATHER ACROSS CENTRAL AND WESTERN NORTH DAKOTA  *****

CITY           SKY/WX    TMP DP  RH WIND       PRES   REMARKS
BISMARCK       CLEAR     76  69  79 S6        29.71F
MINOT          CLEAR     66  62  87 N10       29.74R
JAMESTOWN      PTCLDY    73  67  81 S8        29.74F
MINOT AFB      CLEAR     65  65 100 N10       29.74R
GARRISON         N/A     67  63  87 N3        29.73F
WILLISTON      CLEAR     71  62  73 N14       29.78F
DICKINSON      CLEAR     68  64  87 NE6       29.77R FOG
HETTINGER      PTCLDY    66  63  90 CALM      29.79R FOG
$$

 *****  OTHER AIRPORT OBSERVATIONS IN OUR AREA  *****

CITY           SKY/WX    TMP DP  RH WIND       PRES   REMARKS
WALHALLA       LGT RAIN  66  66 100 MISG      29.74F
GRAFTON AIRPOR MOCLDY    72  63  73 N24G33    29.78R
VALLEY CITY AR FAIR      73  70  88 S10       29.76R
CANDO          FAIR      66  63  88 SE10      29.77R
CAVALIER APRT  LGT RAIN  66  64  94 NE12      29.76F
GWINNER        FAIR      73  68  83 S8        29.77S
ROLLA          FAIR      63  63 100 N13       29.78S
 ***** THE ABOVE OBSERVATIONS ARE NON NWS ARE NOT QUALITY
       CONTROLLED AND MAY MIS-REPORT RAIN FOR SNOW...
$$

  *****  WEATHER ACROSS NORTHERN MINNESOTA  *****

CITY           SKY/WX    TMP DP  RH WIND       PRES   REMARKS
FLAG ISLAND    NOT AVBL
WARROAD        CLOUDY    64  61  88 E12       29.81F
ROSEAU         CLOUDY    63  57  82 E13       29.79S
HALLOCK        TSTM      66  64  94 W10G36    29.82R
THF RVR FALLS  MOCLDY    73  64  73 S10       29.76F
BAUDETTE       LGT RAIN  63  60  90 E8        29.85F
WASKISH        CLOUDY    70  64  83 NE3       29.83R FOG
CROOKSTON      MOCLDY    75  64  69 S16       29.75R
$$
  *****  WEATHER ACROSS CENTRAL AND WEST MINNESOTA  *****

CITY           SKY/WX    TMP DP  RH WIND       PRES   REMARKS
FOSSTON        MOCLDY    70  63  78 S12       29.81R
BEMIDJI        MOCLDY    71  65  81 S6        29.83R
PARK RAPIDS    PTCLDY    72  64  76 S12       29.82F
ELBOW LAKE     FAIR      70  64  82 S12       29.82F
WADENA         PTCLDY    70  63  78 S10       29.83F
DETROIT LAKES  MOCLDY    73  63  68 S8        29.83S
MOORHEAD       PTCLDY    73  64  73 S13       29.78R
FERGUS FALLS   PTCLDY    72  63  73 S13       29.80F
MORRIS MN      CLEAR     70  64  83 S9        29.83F HAZE
STAPLES        CLEAR     68  63  83 S8        29.86F
$$
  *****  WEATHER ELSEWHERE ACROSS MINNESOTA  *****

CITY           SKY/WX    TMP DP  RH WIND       PRES   REMARKS
DULUTH         PTCLDY    61  55  81 E7        29.94F
INTRNTL FALLS  LGT RAIN  69  61  75 N13       29.87R
ELY            PTCLDY    61  52  72 SE7       29.90F
CLOQUET        PTCLDY    57  55  94 SE5       29.93F
WHEATON        PTCLDY    70  63  78 SE12      29.81F
BRAINERD       PTCLDY    69  65  86 S7        29.89F FOG
HIBBING        PTCLDY    61  57  87 SE5       29.90F
ALEXANDRIA     CLEAR     70  64  81 S8        29.89F
SAINT CLOUD    CLEAR     68  64  87 SE6       29.91S FOG
MINNEAPOLIS    CLEAR     74  61  63 S8        29.95R
$$

  *****  WEATHER ACROSS SOUTH DAKOTA  *****

CITY           SKY/WX    TMP DP  RH WIND       PRES   REMARKS
SIOUX FALLS    PTCLDY    72  63  73 S12       29.90S
BROOKINGS      PTCLDY    70  63  78 SE15      29.89F
WATERTOWN      MOCLDY    71  65  81 SE10      29.84F
HURON          CLOUDY    73  66  78 S15G24    29.78F
SISSETON         N/A     72  65  78 S10       29.78F
ABERDEEN       MOCLDY    75  67  76 SE24G32   29.77F
MITCHELL       CLOUDY    73  66  78 S16G24    29.82F
PIERRE         MOCLDY    81  67  62 SW7       29.73R
MOBRIDGE       CLEAR     76  71  85 SE13      29.72F
RAPID CITY     CLEAR     68  61  78 NW6       29.82S HAZE
$$

  *****  SOME WEATHER IN NEARBY STATES *****

CITY           SKY/WX    TMP DP  RH WIND       PRES   REMARKS
GLASGOW MT     CLEAR     70  53  54 E18       29.77F
GREAT FALLS MT PTCLDY    68  51  54 N12       29.81R
CHEYENNE WY    MOCLDY    68  52  56 W8        30.04S
SCOTTSBLUFF NE MOCLDY    72  62  71 E6        29.88S
OMAHA NE       CLEAR     72  62  71 S9        29.95S
DES MOINES IA  PTCLDY    69  60  73 S6        29.99R
DAVENPORT IA   CLEAR     64  60  87 S5        30.03R FOG
CHICAGO IL     PTCLDY    67  57  70 CALM      30.03S SMOKE
EAU CLAIRE WI  CLEAR     69  64  84 S3        29.96R HAZE
LA CROSSE WI   CLEAR     70  66  87 S5        29.97R
$$

  *****  SOME NATIONAL WEATHER *****

CITY           SKY/WX    TMP DP  RH WIND       PRES   REMARKS
LA GUARDIA NY  MOCLDY    71  60  68 SW5       30.03R
RALEIGH NC     MOCLDY    74  69  85 SW5       30.06R
ATLANTA GA     CLOUDY    71  67  87 S5        30.07F
NEW ORLEANS LA PTCLDY    79  71  76 CALM      30.09R
OKLAHOMA CITY  MOCLDY    74  70  87 SE14      29.97R
ALBUQUERQUE NM CLOUDY    72  59  63 E6        30.15R
SALT LAKE CITY CLOUDY    82  56  40 NE5       29.95R
LOS ANGELES CA CLOUDY    63  59  87 W9        29.93R
BOISE ID       CLOUDY    86  40  19 S3        29.76R
SEATTLE WA     PTCLDY    81  42  25 N6        29.80R
$$

*** WEATHER ACROSS MANITOBA...SASKATCHEWAN AND ONTARIO ***
                ***ONTARIO***

CITY           SKY/WX    TMP DP  RH WIND       PRES   REMARKS
GERALDTON      MOCLDY    55  50  82 S5        29.95S
THUNDER BAY    CLEAR     54  54 100 NW2       29.96F
SIOUX LOOKOUT  CLOUDY    70  57  64 S9        29.77F
TORONTO        PTCLDY    66  55  68 NW7       30.04R
BIG TROUT LK   LGT RAIN  63  63 100 VRB2      29.66F FOG
PICKLE LAKE    NOT AVBL
DRYDEN         LGT RAIN  68  63  83 SW14G25   29.78F
KENORA         LGT RAIN  63  61  94 SE8       29.76F
$$
                *** MANITOBA***

CITY           SKY/WX    TMP DP  RH WIND       PRES   REMARKS
BRANDON        PTCLDY    61  61 100 CALM      29.78F
DAUPHIN        CLOUDY    55  54  94 W6        29.79F FOG
ISLAND LAKE    CLOUDY    59  55  88 CALM      29.67R
PILOT MOUND      N/A    N/A N/A N/A N7          N/A
THE PAS        SMOKE     59  52  77 SW7       29.76S VSB 3/4
THOMPSON       PTCLDY    52  48  87 NW5       29.69R
WINNIPEG       CLOUDY    64  64 100 SW5       29.78R
LYNN LAKE      CLOUDY    45  43  93 N8        29.78R FOG
CHURCHILL      LGT RAIN  43  41  93 E25G39    29.71R FOG
GILLAM         CLOUDY    57  54  88 W15G21    29.59R SMOKE
$$
                ***SASKATCHEWAN***

CITY           SKY/WX    TMP DP  RH WIND       PRES   REMARKS
ESTEVAN        PTCLDY    63  61  94 N6        29.80F
KINDERSLEY     LGT RAIN  55  54  94 SW3       29.96F
LLOYDMINSTER   PTCLDY    52  46  82 W7        29.96S
PRINCE ALBERT  MOCLDY    55  48  76 W6        29.88R
REGINA         MOCLDY    63  63 100 N8        29.84S SMOKE
YORKTON        CLOUDY    57  54  88 N5        29.84F FOG
N. BATTLEFORD  MOCLDY    59  46  63 NE7       29.94R
LA RONGE       NOT AVBL
SASKATOON      CLOUDY    59  50  72 W7        29.90R SMOKE
SWIFT CURRENT  CLOUDY    64  50  59 N13G20    29.93R HAZE
$$
NOTE: THESE ARE AUTOMATED STATIONS WITH LIMITED QUALITY CONTROL
      "FAIR" INDICATES FEW OR NO CLOUDS BELOW 12,000 FEET WITH NO
      SIGNIFICANT WEATHER AND/OR OBSTRUCTIONS TO VISIBILITY.
      SKY/WX - SKY CONDITION AND SIGNIFICANT WEATHER.
      TMP - AIR TEMPERATURE.    DP   - DEWPOINT TEMPERATURE.
      RH  - RELATIVE HUMIDITY.  PRES - PRESSURE.
      HX  - HEAT INDEX.         WCI  - WIND CHILL INDEX.
$



USA.gov is the U.S. government's official web portal to all federal, state and local government web resources and services.